{"data":{"norad_id":68891,"epoch":"2026-05-24T20:41:02.044608Z","epoch_age_seconds":84229,"freshness":"FRESH","line1":"1 68891U 26095AD  26144.86182922  .00040505  00000+0  10662-2 0  9999","line2":"2 68891  51.8855 354.9604 0000951 124.5589 235.5488 15.38150464  4147","mean_motion":15.38150464,"eccentricity":9.51e-5,"inclination_deg":51.8855,"raan_deg":354.9604,"arg_perigee_deg":124.5589,"mean_anomaly_deg":235.5488,"bstar":0.0010662,"rev_number":414,"period_min":93.618929597774,"perigee_km":450.92922106967,"apogee_km":452.22823300095,"semimajor_km":6829.7157270353,"source":"CELESTRAK","updated_at":"2026-05-25T13:38:08.651479Z"}}